This demonstration page uses our WeatherBlox Daily Observations layout. Learn more.

Left ArrowRight Arrow

Hourly Observations for June 2, 2021

Temp ( °F °C ) Dew Point ( °F °C ) Humidity (%) Winds ( mph kmh ) Pressure ( in mb ) Visibility ( mi km ) Precip ( " mm )
12:51 am 00:51 Clear 75 23.9 37 2.8 25 25 ESE 7 11 29.79 1009 10 16 N/A
1:51 am 01:51 Clear 72 22.2 36 2.2 27 27 ESE 6 9 29.78 1009 10 16 N/A
2:51 am 02:51 Clear 69 20.6 35 1.7 29 29 E 6 9 29.80 1009 10 16 N/A
3:51 am 03:51 Clear 67 19.4 35 1.7 31 31 E 5 7 29.81 1010 10 16 N/A
4:51 am 04:51 Clear 65 18.3 34 1.1 32 32 N N/A 29.83 1010 10 16 N/A
5:51 am 05:51 Sunny 69 20.6 36 2.2 30 30 NE 5 7 29.83 1010 10 16 N/A
6:51 am 06:51 Sunny 73 22.8 36 2.2 26 26 VRB 3 6 29.83 1010 10 16 N/A
7:51 am 07:51 Sunny 81 27.2 38 3.3 21 21 E 12 19 29.82 1010 10 16 N/A
8:51 am 08:51 Sunny 84 28.9 39 3.9 20 20 ESE 9 15 29.83 1010 10 16 N/A
9:51 am 09:51 Sunny 87 30.6 39 3.9 18 18 ESE 7 11 29.81 1010 10 16 N/A
10:51 am 10:51 Sunny 90 32.2 37 2.8 15 15 S 6 9 29.80 1009 10 16 N/A
11:51 am 11:51 Sunny 92 33.3 34 1.1 13 13 NW 8 13 29.76 1008 10 16 N/A
12:51 pm 12:51 Sunny 97 36.1 31 -0.6 10 10 NNW 13 20 29.72 1007 10 16 N/A
1:51 pm 13:51 Sunny 97 36.1 32 undefined 10 10 undefined N/A 29.70 1006 10 16 N/A
2:51 pm 14:51 Sunny 98 36.7 29 -1.7 9 9 NNW 9 15 29.67 1005 10 16 N/A
3:51 pm 15:51 Sunny 99 37.2 27 -2.8 8 8 WNW 17 28 29.66 1004 10 16 N/A
4:51 pm 16:51 Sunny 100 37.8 26 -3.3 7 7 NW 16 26 29.65 1004 10 16 N/A
5:51 pm 17:51 Mostly Sunny 97 36.1 26 -3.3 8 8 NW 21 33 29.64 1004 10 16 N/A
6:51 pm 18:51 Mostly Sunny 94 34.4 26 -3.3 9 9 NW 15 24 29.65 1004 10 16 N/A
7:51 pm 19:51 Clear 91 32.8 26 -3.3 9 9 WNW 13 20 29.66 1004 10 16 N/A
8:51 pm 20:51 Clear 85 29.4 27 -2.8 12 12 NW 9 15 29.68 1005 10 16 N/A
9:51 pm 21:51 Clear 85 29.4 28 -2.2 13 13 NW 9 15 29.69 1006 10 16 N/A
10:51 pm 22:51 Clear 85 29.4 28 -2.2 13 13 NW 14 22 29.68 1005 10 16 N/A
11:51 pm 23:51 Clear 84 28.9 29 -1.7 13 13 NW 10 17 29.69 1006 10 16 N/A

Powered by AerisWeather